Location: Ay?beleni
(36.6500°N, 30.3000°E)
Time: 10:52:28
(UTC+00:00)

Nadezhda 1 Rocket - Pass Details

Date: 08 August 2020
Orbit: 940 x 1006 km, 83.0° (Epoch: 22 September)

Event Time Altitude Azimuth Distance (km) Brightness Sun altitude
Rises 02:28:43 0° 146° (SE) 3,717 7.1 -8.5°
Reaches altitude 10° 02:31:50 10° 132° (SE) 2,774 6.7 -8.0°
Maximum altitude 02:36:30 22° 84° (E) 2,046 6.8 -7.1°
Drops below altitude 10° 02:41:11 10° 37° (NE) 2,782 7.5 -6.3°
Sets 02:44:17 0° 23° (NNE) 3,731 7.9 -5.7°
